Le nostre stazioni meteo in Italia

Pubblicità
Il mio iltempo24.it
Kielder Castle, Gran Bretagna (99186): Temperatura & dewpoint: 14.10.2017 08:00:00 - 20.10.2017 08:00:00 (BST)Kielder Castle, Gran Bretagna (99186): Temperatura -20cm & Temperatura -100cm: 14.10.2017 08:00:00 - 20.10.2017 08:00:00 (BST)Kielder Castle, Gran Bretagna (99186): precipitazioni: 14.10.2017 08:00:00 - 20.10.2017 08:00:00 (BST)
Data & Tempo tt [°C] td [°C] tt -20cm [°C] tt -100cm [°C] rr [mm]
20.10.2017 08:00:00 - - - - -
20.10.2017 07:00:00 10,8 10,7 - - 0,4
20.10.2017 06:00:00 10,7 10,6 - - 0,0
20.10.2017 05:00:00 10,8 10,6 - - 0,2
20.10.2017 04:00:00 10,8 10,6 - - 1,2
20.10.2017 03:00:00 10,9 10,7 - - 3,0
20.10.2017 02:00:00 11,1 10,9 - - 3,0
20.10.2017 01:00:00 11,1 10,9 - - 0,6
20.10.2017 00:00:00 11,3 11,2 - - 0,0
19.10.2017 23:00:00 11,1 10,9 - - 0,0
19.10.2017 22:00:00 11,0 10,8 - - 0,4
19.10.2017 21:00:00 11,1 10,9 - - 2,0
19.10.2017 20:00:00 11,1 10,8 - - 4,4
19.10.2017 19:00:00 11,2 10,8 - - 1,4
19.10.2017 18:00:00 11,4 10,6 - - 1,2
19.10.2017 17:00:00 11,6 10,4 - - 0,0
19.10.2017 16:00:00 11,7 10,2 - - 0,0
19.10.2017 15:00:00 11,8 10,2 - - 0,0
19.10.2017 14:00:00 12,1 10,4 - - 0,0
19.10.2017 13:00:00 11,9 10,2 - - 0,0
19.10.2017 12:00:00 11,3 10,0 - - 0,0
19.10.2017 11:00:00 10,1 9,4 - - 0,0
19.10.2017 10:00:00 9,8 9,2 11,9 12,2 0,0
19.10.2017 09:00:00 9,6 9,2 - - 0,0
19.10.2017 08:00:00 9,6 9,2 - - 0,0
19.10.2017 07:00:00 9,7 9,2 - - 0,0
19.10.2017 06:00:00 9,6 9,1 - - 0,0
19.10.2017 05:00:00 9,5 9,0 - - 0,0
19.10.2017 04:00:00 9,4 8,7 - - 0,0
19.10.2017 03:00:00 9,4 8,5 - - 0,0
19.10.2017 02:00:00 9,4 8,5 - - 0,0
19.10.2017 01:00:00 9,6 8,7 - - 0,0
19.10.2017 00:00:00 9,7 9,0 - - 0,0
18.10.2017 23:00:00 9,6 8,9 - - 0,0
18.10.2017 22:00:00 9,3 8,8 - - 0,0
18.10.2017 21:00:00 9,2 8,5 - - 0,0
18.10.2017 20:00:00 9,0 8,3 - - 0,0
18.10.2017 19:00:00 9,1 8,3 - - 0,0
18.10.2017 18:00:00 9,4 8,4 - - 0,0
18.10.2017 17:00:00 9,9 9,0 - - 0,0
18.10.2017 16:00:00 10,0 9,2 - - 0,8
18.10.2017 15:00:00 9,8 8,7 - - 0,0
18.10.2017 14:00:00 10,0 8,9 - - 0,2
18.10.2017 13:00:00 10,0 8,7 - - 0,0
18.10.2017 12:00:00 9,5 8,5 - - 0,0
18.10.2017 11:00:00 9,4 8,7 - - 0,2
18.10.2017 10:00:00 9,1 8,6 12,0 12,2 0,0
18.10.2017 09:00:00 8,7 8,4 - - 0,2
18.10.2017 08:00:00 8,4 8,1 - - 0,2
18.10.2017 07:00:00 8,3 8,1 - - 0,2
18.10.2017 06:00:00 8,2 8,0 - - 0,6
18.10.2017 05:00:00 8,2 7,9 - - 0,4
18.10.2017 04:00:00 8,3 8,0 - - 0,6
18.10.2017 03:00:00 8,3 8,1 - - 0,0
18.10.2017 02:00:00 8,2 8,0 - - 0,0
18.10.2017 01:00:00 8,1 7,9 - - 0,4
18.10.2017 00:00:00 8,0 7,8 - - 0,2
17.10.2017 23:00:00 7,8 7,4 - - 0,0
17.10.2017 22:00:00 8,2 7,7 - - 0,0
17.10.2017 21:00:00 8,6 7,9 - - 0,0
17.10.2017 20:00:00 9,2 8,0 - - 0,0
17.10.2017 19:00:00 9,3 8,3 - - 0,2
17.10.2017 18:00:00 10,1 8,5 - - 0,0
17.10.2017 17:00:00 11,0 8,8 - - 0,0
17.10.2017 16:00:00 11,5 9,3 - - 0,0
17.10.2017 15:00:00 11,6 9,5 - - 0,0
17.10.2017 14:00:00 10,9 8,6 - - 0,0
17.10.2017 13:00:00 10,3 8,4 - - 0,0
17.10.2017 12:00:00 10,1 8,5 - - 0,0
17.10.2017 11:00:00 9,7 8,6 - - 0,2
17.10.2017 10:00:00 9,6 8,3 12,4 12,2 0,0
17.10.2017 09:00:00 9,8 8,4 - - 0,0
17.10.2017 08:00:00 9,5 8,6 - - 0,2
17.10.2017 07:00:00 9,4 8,6 - - 0,6
17.10.2017 06:00:00 9,5 8,4 - - 0,4
17.10.2017 05:00:00 9,6 8,5 - - 1,4
17.10.2017 04:00:00 9,5 8,6 - - 2,4
17.10.2017 03:00:00 10,2 9,3 - - 1,8
17.10.2017 02:00:00 10,6 9,9 - - 3,0
17.10.2017 01:00:00 11,3 9,7 - - 0,4
17.10.2017 00:00:00 11,3 9,8 - - 0,2
16.10.2017 23:00:00 11,5 9,2 - - 0,0
16.10.2017 22:00:00 12,1 8,5 - - 0,0
16.10.2017 21:00:00 11,9 8,6 - - 0,0
16.10.2017 20:00:00 12,6 8,2 - - 0,0
16.10.2017 19:00:00 13,0 8,0 - - 0,0
16.10.2017 18:00:00 13,6 8,2 - - 0,2
16.10.2017 17:00:00 15,2 11,6 - - 0,0
16.10.2017 16:00:00 13,5 13,1 - - 0,0
16.10.2017 15:00:00 13,2 12,5 - - 0,0
16.10.2017 14:00:00 12,6 12,1 - - 0,0
16.10.2017 13:00:00 12,6 12,0 - - 0,0
16.10.2017 12:00:00 12,1 11,5 - - 0,0
16.10.2017 11:00:00 11,4 11,1 - - 0,8
16.10.2017 10:00:00 11,3 11,1 12,7 12,2 0,2
16.10.2017 09:00:00 11,1 10,9 - - 0,0
16.10.2017 08:00:00 11,3 11,1 - - 0,0
16.10.2017 07:00:00 11,3 11,0 - - 0,0
16.10.2017 06:00:00 12,0 11,7 - - 0,0
16.10.2017 05:00:00 12,2 11,9 - - 0,0
16.10.2017 04:00:00 12,3 12,0 - - 0,0
16.10.2017 03:00:00 12,4 12,0 - - 0,2
16.10.2017 02:00:00 12,5 12,2 - - 0,4
16.10.2017 01:00:00 12,5 12,2 - - 0,4
16.10.2017 00:00:00 12,6 12,3 - - 0,4
15.10.2017 23:00:00 12,7 12,4 - - 0,4
15.10.2017 22:00:00 12,8 12,5 - - 0,6
15.10.2017 21:00:00 12,9 12,6 - - 0,8
15.10.2017 20:00:00 13,2 12,7 - - 0,8
15.10.2017 19:00:00 13,3 12,8 - - 0,4
15.10.2017 18:00:00 13,3 12,7 - - 0,8
15.10.2017 17:00:00 13,3 12,7 - - 0,6
15.10.2017 16:00:00 13,3 12,7 - - 1,0
15.10.2017 15:00:00 13,1 12,4 - - 0,8
15.10.2017 14:00:00 13,8 11,7 - - 0,0
15.10.2017 13:00:00 13,9 11,5 - - 0,0
15.10.2017 12:00:00 13,7 11,4 - - 0,0
15.10.2017 11:00:00 13,5 11,5 - - 0,0
15.10.2017 10:00:00 13,3 11,8 12,7 12,2 0,0
15.10.2017 09:00:00 13,5 11,3 - - 0,0
15.10.2017 08:00:00 13,1 11,1 - - 0,0
15.10.2017 07:00:00 13,2 11,3 - - 0,0
15.10.2017 06:00:00 13,1 11,3 - - 0,0
15.10.2017 05:00:00 12,4 11,3 - - 0,0
15.10.2017 04:00:00 12,1 11,8 - - 0,0
15.10.2017 03:00:00 11,5 11,4 - - 0,0
15.10.2017 02:00:00 10,6 10,4 - - 0,0
15.10.2017 01:00:00 9,9 9,7 - - 0,0
15.10.2017 00:00:00 10,3 9,9 - - 0,0
14.10.2017 23:00:00 11,3 10,8 - - 0,0
14.10.2017 22:00:00 12,6 11,6 - - 0,0
14.10.2017 21:00:00 13,3 12,1 - - 0,0
14.10.2017 20:00:00 13,6 12,4 - - 0,0
14.10.2017 19:00:00 14,1 13,4 - - 0,0
14.10.2017 18:00:00 14,3 13,8 - - 0,0
14.10.2017 17:00:00 14,5 14,2 - - 0,0
14.10.2017 16:00:00 14,3 14,0 - - 0,4
14.10.2017 15:00:00 13,5 13,0 - - 0,8
14.10.2017 14:00:00 13,2 12,7 - - 0,0
14.10.2017 13:00:00 13,2 12,7 - - 0,2
14.10.2017 12:00:00 12,9 11,8 - - 0,0
14.10.2017 11:00:00 12,3 11,6 - - 0,0
14.10.2017 10:00:00 12,0 11,4 12,4 12,2 0,0
14.10.2017 09:00:00 11,7 11,3 - - 0,4
14.10.2017 08:00:00 11,4 11,0 - - 0,2

tt = Temperatura
td = dewpoint
tt -20cm = Temperatura -20cm
tt -100cm = Temperatura -100cm
rr = precipitazioni

Stazioni seguenti

WeatherPro
AMSI
MeteoEarth